Powrót do katalogu

DELTA 1 DEB

AktywnySSO
NORAD 12174·DEBRIS·🇺🇸 United States

Wystrzelony Mar 5, 1978 z Vandenberg Space Force Base

Loading…

Następne Przeloty (najbliższe 24 godziny)

TLE

ŚwieżeSource: Space-Track

Epoka: Sep 14, 2026, 13:12 UTC

1 12174U 78026P   26257.55028281  .00000102  00000-0  81714-4 0  9999
2 12174  99.0192 292.5958 0042918  85.7937  78.0883 14.10411632344334

Śledź DELTA 1 DEB w czasie rzeczywistym z AllMySat

Download on the App Store